K3RTA-2 Weather Reports


time (UTC)temp
C
wind
direction
speed
KPH
gust
KPH
rain 1hr
cm
rain 24hr
cm
rain mn
cm
humidity
%
barometer
mb
20260504141005 18 258 4.8 14.5 0.00 0.00 0.00 58 1014.8
20260504140504 18 247 3.2 11.3 0.00 0.00 0.00 58 1014.9
20260504130503 16 269 3.2 4.8 0.00 0.00 0.00 68 1015.6
20260504110504 10 224 0.0 1.6 0.00 0.00 0.00 85 1016.6
20260504100504 10 255 0.0 1.6 0.00 0.00 0.00 84 1016.4
20260504082004 9 180 1.6 8.0 0.00 0.00 0.00 83 1016.8
20260504081503 9 145 1.6 8.0 0.00 0.00 0.00 83 1016.8
20260504081004 9 171 0.0 9.7 0.00 0.00 0.00 83 1016.8
20260504080504 9 239 1.6 9.7 0.00 0.00 0.00 83 1016.8
20260504050504 5 143 0.0 0.0 0.00 0.00 0.00 77 1016.9
20260504050004 5 142 0.0 0.0 0.00 0.00 0.00 77 1016.7
20260504045504 5 141 0.0 0.0 0.00 0.00 0.00 77 1016.8
20260504045004 5 142 0.0 0.0 0.00 0.00 0.00 77 1016.8
20260504044004 5 142 0.0 0.0 0.00 0.00 0.00 77 1016.7
20260504043504 5 142 0.0 0.0 0.00 0.00 0.00 76 1016.8
20260504043004 6 142 0.0 0.0 0.00 0.00 0.00 76 1016.7
20260504042504 6 142 0.0 0.0 0.00 0.00 0.00 76 1016.7
20260504042004 6 142 0.0 0.0 0.00 0.00 0.00 76 1016.6
20260504041504 6 142 0.0 0.0 0.00 0.00 0.00 75 1016.5
20260504041004 6 139 0.0 0.0 0.00 0.00 0.00 75 1016.4
20260504040505 6 139 0.0 0.0 0.00 0.00 0.00 75 1016.3
20260504040004 6 139 0.0 0.0 0.00 0.00 0.00 75 1016.2
20260504035504 6 139 0.0 0.0 0.00 0.00 0.00 75 1016.3
20260504035004 6 139 0.0 0.0 0.00 0.00 0.00 75 1016.3
20260504034504 6 139 0.0 0.0 0.00 0.00 0.00 75 1016.2
20260504034004 6 139 0.0 0.0 0.00 0.00 0.00 75 1016.1
20260504033505 6 139 0.0 0.0 0.00 0.00 0.00 74 1016.1
20260504033003 6 139 0.0 0.0 0.00 0.00 0.00 74 1016.0
20260504032503 6 139 0.0 0.0 0.00 0.00 0.00 74 1016.1
20260504032005 6 139 0.0 0.0 0.00 0.00 0.00 73 1016.1
20260504031503 6 139 0.0 0.0 0.00 0.00 0.00 74 1016.0
20260504031004 6 139 0.0 0.0 0.00 0.00 0.00 74 1016.0
20260504030504 6 139 0.0 0.0 0.00 0.00 0.00 74 1016.0
20260504030004 6 139 0.0 0.0 0.00 0.00 0.00 73 1016.1
20260504025504 6 139 0.0 0.0 0.00 0.00 0.00 73 1016.1
20260504024503 6 139 0.0 0.0 0.00 0.00 0.00 73 1016.0
20260504024005 6 139 0.0 0.0 0.00 0.00 0.00 73 1016.0
20260504023504 6 139 0.0 0.0 0.00 0.00 0.00 72 1016.0
20260504022504 6 139 0.0 0.0 0.00 0.00 0.00 72 1016.0
20260504022005 6 139 0.0 0.0 0.00 0.00 0.00 72 1016.0
20260504021504 7 139 0.0 0.0 0.00 0.00 0.00 71 1016.1
20260504021004 7 139 0.0 0.0 0.00 0.00 0.00 71 1016.0
20260504020004 7 139 0.0 0.0 0.00 0.00 0.00 70 1015.8
20260504015505 7 144 0.0 0.0 0.00 0.00 0.00 70 1015.8
20260504014504 7 144 0.0 0.0 0.00 0.00 0.00 69 1015.8
20260504014005 7 144 0.0 0.0 0.00 0.00 0.00 68 1015.7
20260504013004 7 134 0.0 0.0 0.00 0.00 0.00 67 1015.7
20260504012503 7 133 0.0 0.0 0.00 0.00 0.00 67 1015.6
20260504012004 8 133 0.0 0.0 0.00 0.00 0.00 66 1015.6
20260504011504 8 133 0.0 0.0 0.00 0.00 0.00 65 1015.6
20260504010504 8 133 0.0 0.0 0.00 0.00 0.00 64 1015.4
20260504010004 8 113 0.0 0.0 0.00 0.00 0.00 64 1015.4
20260504005004 9 113 0.0 0.0 0.00 0.00 0.00 62 1015.3
20260504004504 9 113 0.0 0.0 0.00 0.00 0.00 61 1015.3
20260504003004 10 103 0.0 0.0 0.00 0.00 0.00 56 1015.0
20260504002505 10 103 0.0 0.0 0.00 0.00 0.00 55 1014.9
20260504002004 11 103 0.0 0.0 0.00 0.00 0.00 54 1014.8
20260504001504 11 103 0.0 0.0 0.00 0.00 0.00 53 1014.8
20260504001004 11 103 0.0 0.0 0.00 0.00 0.00 52 1014.8
20260504000504 11 103 0.0 0.0 0.00 0.00 0.00 51 1014.7
20260503235505 12 119 0.0 0.0 0.00 0.00 0.00 49 1014.8
20260503234504 12 119 0.0 1.6 0.00 0.00 0.00 48 1014.7
20260503234004 12 106 0.0 1.6 0.00 0.00 0.00 47 1014.7
20260503233504 13 65 0.0 1.6 0.00 0.00 0.00 46 1014.7
20260503233004 13 84 0.0 4.8 0.00 0.00 0.00 46 1014.6
20260503232504 13 229 0.0 4.8 0.00 0.00 0.00 45 1014.6
20260503231004 13 25 1.6 4.8 0.00 0.00 0.00 45 1014.6
20260503230504 13 256 1.6 3.2 0.00 0.00 0.00 43 1014.4
20260503225505 13 54 0.0 4.8 0.00 0.00 0.00 44 1014.5
20260503225004 14 347 1.6 9.7 0.00 0.00 0.00 45 1014.4
20260503224504 14 13 1.6 9.7 0.00 0.00 0.00 44 1014.3
20260503224004 14 80 0.0 4.8 0.00 0.00 0.00 43 1014.3
20260503223504 14 355 1.6 4.8 0.00 0.00 0.00 42 1014.4
20260503223004 14 105 1.6 4.8 0.00 0.00 0.00 42 1014.3
20260503222504 14 66 0.0 4.8 0.00 0.00 0.00 42 1014.3
20260503222005 14 308 1.6 16.1 0.00 0.00 0.00 41 1014.2
20260503221004 15 343 1.6 14.5 0.00 0.00 0.00 40 1014.4
20260503220504 15 11 3.2 19.3 0.00 0.00 0.00 39 1014.4
20260503220004 15 314 4.8 24.1 0.00 0.00 0.00 38 1014.4
20260503215004 15 358 8.0 22.5 0.00 0.00 0.00 38 1014.4
20260503214504 15 347 8.0 22.5 0.00 0.00 0.00 38 1014.4
20260503213505 15 24 4.8 22.5 0.00 0.00 0.00 39 1014.2
20260503212504 15 2 6.4 22.5 0.00 0.00 0.00 38 1014.1
20260503212004 15 315 3.2 11.3 0.00 0.00 0.00 38 1014.2
20260503211504 15 53 3.2 11.3 0.00 0.00 0.00 39 1014.2
20260503211005 15 4 3.2 12.9 0.00 0.00 0.00 38 1014.2
20260503210503 15 118 3.2 12.9 0.00 0.00 0.00 38 1014.1
20260503210005 15 17 1.6 16.1 0.00 0.00 0.00 38 1014.1
20260503205505 15 248 3.2 16.1 0.00 0.00 0.00 38 1014.1
20260503205005 15 330 3.2 9.7 0.00 0.00 0.00 39 1014.2
20260503204503 15 40 3.2 19.3 0.00 0.00 0.00 39 1014.1
20260503204005 15 227 3.2 19.3 0.00 0.00 0.00 38 1014.1
20260503202504 15 325 3.2 19.3 0.00 0.00 0.00 38 1014.1
20260503202004 15 341 6.4 19.3 0.00 0.00 0.00 37 1014.1
20260503201505 16 331 4.8 16.1 0.00 0.00 0.00 37 1014.3
20260503201004 16 348 3.2 9.7 0.00 0.00 0.00 38 1014.3
20260503200004 15 117 3.2 16.1 0.00 0.00 0.00 38 1014.4
20260503195504 15 343 6.4 14.5 0.00 0.00 0.00 38 1014.3
20260503195004 15 348 3.2 19.3 0.00 0.00 0.00 39 1014.3
20260503194505 15 112 1.6 19.3 0.00 0.00 0.00 38 1014.3
20260503194004 15 9 4.8 12.9 0.00 0.00 0.00 38 1014.4
20260503193004 15 37 4.8 16.1 0.00 0.00 0.00 38 1014.4
20260503192505 14 324 4.8 24.1 0.00 0.00 0.00 40 1014.6
20260503192006 15 347 4.8 24.1 0.00 0.00 0.00 40 1014.6
20260503191504 15 5 4.8 20.9 0.00 0.00 0.00 40 1014.4
20260503191004 14 316 4.8 20.9 0.00 0.00 0.00 38 1014.6
20260503190504 15 27 8.0 20.9 0.00 0.00 0.00 39 1014.7
20260503190004 15 353 3.2 24.1 0.00 0.00 0.00 39 1014.6
20260503185504 14 9 8.0 24.1 0.00 0.00 0.00 39 1014.7
20260503184504 14 328 4.8 19.3 0.00 0.00 0.00 39 1014.6
20260503183505 14 309 3.2 14.5 0.00 0.00 0.00 40 1014.7
20260503182505 13 327 1.6 25.7 0.00 0.00 0.00 40 1015.0
20260503181505 13 289 3.2 20.9 0.00 0.00 0.00 42 1015.1
20260503181005 13 358 11.3 20.9 0.00 0.00 0.00 40 1015.0
20260503180504 14 31 4.8 19.3 0.00 0.00 0.00 40 1014.9
20260503180004 14 309 3.2 19.3 0.00 0.00 0.00 42 1014.9
20260503175505 14 352 4.8 19.3 0.00 0.00 0.00 44 1015.0
20260503175005 13 346 4.8 19.3 0.00 0.00 0.00 42 1014.8
20260503174504 13 19 8.0 24.1 0.00 0.00 0.00 43 1014.7
20260503174004 13 355 6.4 24.1 0.00 0.00 0.00 42 1014.9
20260503173504 13 248 3.2 20.9 0.00 0.00 0.00 44 1014.9
20260503173004 13 23 9.7 20.9 0.00 0.00 0.00 43 1015.1
20260503172504 13 22 4.8 14.5 0.00 0.00 0.00 46 1014.9
20260503172004 13 321 3.2 16.1 0.00 0.00 0.00 45 1015.1
20260503171505 13 336 3.2 16.1 0.00 0.00 0.00 45 1015.0
20260503171006 12 322 3.2 19.3 0.00 0.00 0.00 47 1015.0
20260503170504 12 16 9.7 19.3 0.00 0.00 0.00 45 1015.0
20260503151004 11 347 3.2 16.1 0.00 0.00 0.00 53 1015.3